Miscellaneous Local Product
Issued by NWS North Platte, NE

Home | Current Version | Previous Version | Text Only | Print | Product List | Glossary On
Versions: 1 2 3 4 5 6 7 8 9 10 11 12 13 14 15 16 17 18 19 20 21 22 23 24 25 26 27 28 29 30 31 32 33 34 35 36 37 38 39 40 41 42 43 44 45 46 47 48 49 50
000
AXUS43 KLBF 191310
MISLBF


WESTERN AND NORTH CENTRAL NEBRASKA HOURLY WEATHER ROUNDUP
NATIONAL WEATHER SERVICE NORTH PLATTE NE
800 AM CDT SAT APR 19 2014

***STATIONS NOT REPORTING VARIABLES SUCH AS SKY/WEATHER OR
PRESSURE ARE PROVIDED BY THE NEBRASKA DEPARTMENT OF
ROADS...RAWS...AND APRS NETWORKS...AND ARE NOT UNDER
NATIONAL WEATHER SERVICE QUALITY CONTROL***

...OBSERVATIONS IN AND NEAR THE EASTERN PANHANDLE OF NEBRASKA...

CITY           SKY/WX    TMP DP  RH WIND       PRES   REMARKS
PINE RIDGE     CLOUDY    39  34  82 E6        30.01R WCI  35
CHADRON        CLOUDY    43  38  82 SW8       30.02R
ALLIANCE       CLOUDY    41  35  79 N6        30.01R
SIDNEY         CLOUDY    48  37  65 N20       29.99R
WHITECLAY        N/A     42  28  57 CALM        N/A
CRESCENT LAKE    N/A     46  38  74 NE9G16      N/A
LISCO            N/A     49  35  58 NW10        N/A
BIG SPRINGS      N/A     48  43  82 NE3         N/A
LEWELLEN         N/A     50  37  61 NE9         N/A
$$

...OBSERVATIONS IN SOUTHWEST NEBRASKA AND FAR NORTHEAST COLORADO...

CITY           SKY/WX    TMP DP  RH WIND       PRES   REMARKS
WRAY           FAIR      48  43  81 W7        29.91R
HOLYOKE        FAIR      46  41  81 N9        29.93R
IMPERIAL       CLOUDY    44  41  89 N7        29.90R
OGALLALA       CLOUDY    49  42  76 NE8       29.94R
NORTH PLATTE   CLOUDY    52  45  77 E6        29.94R
MCCOOK         CLOUDY    50  46  86 E5        29.90R
LEXINGTON      CLOUDY    49  46  87 N7        29.97R
PAXTON           N/A     49  43  81 CALM        N/A
SUTHERLAND       N/A     46  42  88 NE5         N/A
MEDICINE CREEK   N/A     49  44  84 CALM        N/A
GOTHENBURG       N/A     52  46  80 CALM        N/A
CALLAWAY         N/A     48  44  87 CALM        N/A
$$

...OBSERVATIONS IN NORTH CENTRAL NEBRASKA...

CITY           SKY/WX    TMP DP  RH WIND       PRES   REMARKS
VALENTINE      CLOUDY    47  36  65 NW3       29.99R
THEDFORD       PTSUNNY   51  40  67 N9        29.98R
AINSWORTH      CLOUDY    49  39  69 N5        29.98R
O`NEILL        MOSUNNY   53  43  67 S3        29.97R
ORD            MOSUNNY   48  42  80 SE5       29.97R
BROKEN BOW     MOSUNNY   49  44  83 S5        29.96R
BROWNLEE         N/A     52  41  67 N9          N/A
SPRINGVIEW       N/A     49  40  70 W3          N/A
DUNNING          N/A     50  45  81 E3          N/A
BREWSTER         N/A     53  46  78 S9          N/A
ROSE             N/A     53  45  76 E6          N/A
NEWPORT          N/A     51  42  71 NW5         N/A
COMSTOCK         N/A     55  48  79 S5          N/A
CHAMBERS         N/A     55  45  70 S8          N/A
EWING            N/A     53  43  70 S5          N/A
$$

...SOME WEATHER OBSERVATIONS FROM AROUND THE REGION...

CITY           SKY/WX    TMP DP  RH WIND       PRES   REMARKS
DENVER         CLOUDY    50  32  50 S10       29.98R
LARAMIE        CLOUDY    42  30  62 W12       30.07R
CHEYENNE       CLOUDY    43  34  70 N14G20    30.02R
SCOTTSBLUFF    CLOUDY    47  38  71 N3        30.02R
RAPID CITY     MOCLDY    43  17  35 W8        29.99R
PIERRE         MOSUNNY   44  33  65 W7        29.95R
WINNER         FAIR      48  38  68 W6        29.98R
SIOUX FALLS    CLOUDY    54  40  59 S18G28    29.95R
OMAHA          PTSUNNY   56  40  55 S17       30.06S
GRAND ISLAND   CLOUDY    56  44  64 S13       29.98R
KANSAS CITY    MOSUNNY   56  41  57 S12       30.15R
WICHITA        PTSUNNY   56  44  64 S12       30.11R
HAYS           CLOUDY    55  46  71 S17       29.99R
LIBERAL        SUNNY     54  43  66 S21G28    30.01F
GOODLAND       PTCLDY    49  42  77 SW13      29.89R
$$



USA.gov is the U.S. government's official web portal to all federal, state and local government web resources and services.